Notices

What's New in latest Release from April 7th, 2021:

- Updated Glossary, including Speed of Maximum Gust, and Total Hourly Precipitation

- Updated national and regional climate services offices contacts and prices information

- Addition of station inventory lists for 1981-2010, 1971-2000, and 1961-1990 Normals.

If you haven't already, please take our survey and provide feedback about our website: https://eccc.sondage-survey.ca/f/LanguageSelection.aspx?s=442ca660-fcf1-47c0-95a9-59707d6fd709

Hourly Data Report for April 27, 2003

TORONTO CITY
ONTARIO

43°40'00.000" N
79°24'00.000" W
112.50 m
6158355
71508
XTO

Download Data

Hourly Data (April 2003)
Hourly Data Report for April 27, 2003
TIME
LST
Temp Definition
°C
Dew Point Definition
°C
Rel Hum Definition
%
Precip. Amount Definition
mm

Wind Dir Definition
10's deg

Wind Spd Definition
km/h
Visibility Definition
km
Stn Press Definition
kPa
Hmdx Definition


Wind Chill Definition


Weather Definition


00:00 6.4 -3.3 50   LegendMM LegendMM LegendMM 99.96     LegendNANA
01:00 5.4 -3.2 54   LegendMM LegendMM LegendMM 99.99     LegendNANA
02:00 4.4 -2.8 59   LegendMM LegendMM LegendMM 100.01     LegendNANA
03:00 3.7 -2.4 64   LegendMM LegendMM LegendMM 100.04     LegendNANA
04:00 3.5 -3.4 61   LegendMM LegendMM LegendMM 100.07     LegendNANA
05:00 3.6 -4.2 57   LegendMM LegendMM LegendMM 100.12     LegendNANA
06:00 3.6 -4.0 58   LegendMM LegendMM LegendMM 100.20     LegendNANA
07:00 5.3 -3.8 52   LegendMM LegendMM LegendMM 100.27     LegendNANA
08:00 8.3 -4.3 41   LegendMM LegendMM LegendMM 100.32     LegendNANA
09:00 11.3 -2.9 37   LegendMM LegendMM LegendMM 100.30     LegendNANA
10:00 12.9 -4.3 30   LegendMM LegendMM LegendMM 100.32     LegendNANA
11:00 12.5 -3.8 32   LegendMM LegendMM LegendMM 100.33     LegendNANA
12:00 12.7 -3.2 33   LegendMM LegendMM LegendMM 100.29     LegendNANA
13:00 13.2 -5.0 28   LegendMM LegendMM LegendMM 100.26     LegendNANA
14:00 15.5 -4.0 26   LegendMM LegendMM LegendMM 100.19     LegendNANA
15:00 15.5 -3.0 28   LegendMM LegendMM LegendMM 100.10     LegendNANA
16:00 14.7 -0.7 35   LegendMM LegendMM LegendMM 100.06     LegendNANA
17:00 14.0 -0.5 37   LegendMM LegendMM LegendMM 100.04     LegendNANA
18:00 12.8 -0.9 39   LegendMM LegendMM LegendMM 100.00     LegendNANA
19:00 12.7 -2.1 36   LegendMM LegendMM LegendMM 99.97     LegendNANA
20:00 11.6 -2.7 37   LegendMM LegendMM LegendMM 100.01     LegendNANA
21:00 11.2 -2.7 38   LegendMM LegendMM LegendMM 100.03     LegendNANA
22:00 10.4 -2.4 41   LegendMM LegendMM LegendMM 100.03     LegendNANA
23:00 9.8 -2.9 41   LegendMM LegendMM LegendMM 99.98     LegendNANA

Notes on Data Quality.

Legend

  • E = Estimated
  • M = Missing
  • NA = Not Available*
  • [empty] = Indicates an unobserved value
Date modified: